Location: Gälforsberget
(66.6500°N, 22.4167°E)
Time: 18:17:32
(UTC+00:00)

PSLV R/B - Pass Details

Date: 11 April 2026
Orbit: 584 x 680 km, 97.9° (Epoch: 16 May)

Event Time Altitude Azimuth Distance (km) Brightness Sun altitude
Rises 22:26:15 0° 20° (NNE) 2,910 8.4 -14.8°
Reaches altitude 10° 22:28:29 10° 22° (NNE) 1,986 7.3 -14.8°
Maximum altitude 22:32:47 71° 107° (ESE) 645 3.5 -14.8°
Enters shadow 22:35:06 26° 187° (S) 1,197 4.4 -14.8°
